Location: Chuathbaluk
(61.5726°N, 159.2454°W)
Time: 05:06:18
(UTC+00:00)

Transit 4A - Pass Details

Date: 03 December 2020
Orbit: 864 x 980 km, 66.8° (Epoch: 26 January)

Event Time Altitude Azimuth Distance (km) Brightness Sun altitude
Rises 17:05:10 0° 181° (S) 3,648 11.2 -15.1°
Reaches altitude 10° 17:08:03 10° 170° (S) 2,716 10.7 -14.7°
Maximum altitude 17:13:17 28° 114° (ESE) 1,764 10.3 -14.2°
Drops below altitude 10° 17:18:33 10° 59° (ENE) 2,743 10.9 -13.6°
Sets 17:21:28 0° 48° (NE) 3,691 11.4 -13.2°
